Precipitable_Water
0.59 0.60 0.60 0.60 0.59 0.58 0.59 0.58 0.57 0.57 0.56 0.55 0.55 0.56 0.56 0.57 0.56 0.55 0.56 0.58 0.58 0.58 0.57 0.56 0.55 0.54 0.53 0.52 0.50 0.49 0.48 0.37 0.30 0.25 0.23 0.22 0.26 0.25 0.27 0.37 0.36 0.36 0.36 0.29 0.25 0.23 0.23 0.22 0.20 0.23 0.26 0.31 0.30 0.29 0.32 0.31 0.31 0.30 0.20 0.15 0.12 0.12 0.11 0.16 0.18 0.20 0.22 0.22 0.23 0.21 0.21 0.28 0.30 0.49 0.62 0.71 0.65 0.65 0.73 0.72 0.88 0.97 1.01 1.13 1.26 1.37 1.40 1.42
0.59 0.59 0.61 0.61 0.61 0.59 0.58 0.57 0.58 0.57 0.56 0.56 0.56 0.55 0.55 0.56 0.57 0.57 0.58 0.59 0.59 0.59 0.58 0.57 0.56 0.55 0.54 0.52 0.52 0.49 0.42 0.34 0.26 0.26 0.23 0.27 0.27 0.26 0.26 0.30 0.36 0.38 0.41 0.26 0.19 0.20 0.22 0.20 0.19 0.23 0.28 0.26 0.33 0.27 0.33 0.26 0.30 0.23 0.19 0.16 0.11 0.12 0.14 0.21 0.22 0.24 0.24 0.24 0.26 0.25 0.23 0.28 0.30 0.43 0.61 0.47 0.56 0.53 0.61 0.75 0.82 0.88 1.06 1.20 1.29 1.34 1.33 1.35
0.62 0.61 0.60 0.60 0.60 0.61 0.60 0.59 0.58 0.58 0.57 0.56 0.56 0.55 0.55 0.55 0.55 0.57 0.56 0.57 0.58 0.58 0.58 0.58 0.57 0.55 0.54 0.53 0.50 0.48 0.40 0.26 0.27 0.20 0.21 0.27 0.28 0.28 0.26 0.29 0.36 0.44 0.35 0.25 0.21 0.19 0.23 0.23 0.22 0.26 0.28 0.26 0.28 0.25 0.29 0.26 0.25 0.24 0.19 0.14 0.11 0.16 0.20 0.23 0.23 0.25 0.27 0.26 0.27 0.27 0.25 0.25 0.42 0.45 0.67 0.45 0.56 0.53 0.49 0.63 0.76 0.79 0.93 1.08 1.20 1.28 1.30 1.33
0.64 0.63 0.62 0.60 0.60 0.61 0.62 0.61 0.60 0.58 0.57 0.57 0.56 0.55 0.54 0.54 0.55 0.55 0.56 0.56 0.59 0.59 0.58 0.58 0.57 0.56 0.55 0.52 0.52 0.47 0.34 0.28 0.17 0.17 0.22 0.26 0.27 0.27 0.26 0.29 0.35 0.42 0.36 0.28 0.23 0.19 0.27 0.32 0.29 0.27 0.25 0.23 0.26 0.29 0.25 0.27 0.22 0.22 0.19 0.14 0.14 0.20 0.20 0.22 0.25 0.25 0.26 0.26 0.27 0.27 0.26 0.27 0.32 0.57 0.56 0.58 0.48 0.60 0.65 0.59 0.58 0.70 0.85 1.03 1.17 1.26 1.31 1.30
0.64 0.64 0.62 0.61 0.60 0.61 0.62 0.61 0.60 0.59 0.58 0.58 0.56 0.55 0.55 0.54 0.55 0.55 0.56 0.56 0.56 0.57 0.58 0.58 0.57 0.57 0.55 0.53 0.48 0.44 0.33 0.15 0.14 0.25 0.31 0.32 0.33 0.29 0.28 0.29 0.39 0.40 0.31 0.26 0.22 0.18 0.24 0.31 0.30 0.29 0.28 0.22 0.27 0.28 0.26 0.28 0.26 0.22 0.16 0.17 0.18 0.21 0.21 0.23 0.25 0.25 0.26 0.27 0.29 0.29 0.26 0.30 0.43 0.51 0.56 0.48 0.35 0.42 0.56 0.80 0.76 0.85 0.97 1.02 1.12 1.23 1.31 1.26
0.65 0.65 0.64 0.62 0.61 0.61 0.60 0.61 0.61 0.60 0.59 0.58 0.57 0.56 0.55 0.55 0.54 0.55 0.55 0.57 0.57 0.57 0.57 0.57 0.57 0.56 0.55 0.52 0.45 0.38 0.27 0.10 0.36 0.31 0.37 0.40 0.37 0.33 0.32 0.33 0.42 0.35 0.28 0.24 0.20 0.18 0.20 0.27 0.28 0.26 0.25 0.25 0.25 0.25 0.26 0.28 0.28 0.20 0.18 0.18 0.19 0.20 0.21 0.23 0.24 0.24 0.26 0.29 0.29 0.28 0.28 0.33 0.51 0.55 0.64 0.57 0.44 0.63 0.93 0.95 1.00 1.00 1.07 1.15 1.22 1.24 1.23 1.20
0.66 0.65 0.65 0.63 0.62 0.61 0.61 0.60 0.60 0.60 0.59 0.58 0.58 0.57 0.56 0.54 0.54 0.54 0.56 0.56 0.58 0.57 0.57 0.57 0.57 0.57 0.53 0.51 0.44 0.33 0.22 0.18 0.37 0.41 0.37 0.43 0.42 0.35 0.35 0.38 0.38 0.30 0.26 0.22 0.19 0.17 0.19 0.25 0.27 0.26 0.26 0.26 0.27 0.26 0.29 0.29 0.29 0.24 0.18 0.19 0.19 0.21 0.21 0.23 0.24 0.24 0.26 0.28 0.29 0.31 0.30 0.30 0.45 0.55 0.70 0.64 0.76 0.87 1.03 1.08 1.11 1.16 1.20 1.24 1.20 1.26 1.22 1.21
0.69 0.67 0.67 0.65 0.63 0.62 0.61 0.60 0.60 0.59 0.59 0.59 0.58 0.57 0.56 0.54 0.54 0.54 0.57 0.59 0.57 0.56 0.57 0.57 0.57 0.55 0.54 0.42 0.31 0.24 0.24 0.18 0.27 0.40 0.41 0.44 0.42 0.42 0.39 0.36 0.32 0.28 0.24 0.20 0.19 0.17 0.19 0.23 0.24 0.27 0.26 0.24 0.26 0.26 0.29 0.28 0.28 0.23 0.20 0.21 0.20 0.21 0.23 0.24 0.25 0.24 0.25 0.26 0.29 0.31 0.28 0.30 0.50 0.62 0.74 0.74 0.87 0.97 1.06 1.15 1.14 1.17 1.20 1.23 1.18 1.19 1.22 1.24
0.74 0.71 0.69 0.67 0.65 0.63 0.61 0.60 0.59 0.60 0.59 0.60 0.59 0.57 0.57 0.56 0.54 0.54 0.54 0.57 0.58 0.57 0.55 0.57 0.55 0.56 0.56 0.44 0.29 0.21 0.18 0.21 0.29 0.37 0.43 0.41 0.39 0.38 0.36 0.30 0.31 0.27 0.24 0.22 0.21 0.18 0.18 0.22 0.26 0.28 0.23 0.25 0.29 0.26 0.29 0.26 0.22 0.24 0.21 0.21 0.20 0.21 0.23 0.25 0.24 0.25 0.25 0.26 0.27 0.27 0.29 0.40 0.57 0.74 0.74 0.85 0.98 1.04 1.09 1.08 1.11 1.15 1.15 1.17 1.18 1.20 1.25 1.28
0.78 0.75 0.72 0.71 0.68 0.64 0.62 0.60 0.59 0.59 0.59 0.60 0.59 0.58 0.57 0.57 0.56 0.55 0.55 0.55 0.57 0.56 0.55 0.55 0.56 0.55 0.46 0.38 0.33 0.18 0.20 0.26 0.29 0.34 0.38 0.37 0.38 0.36 0.33 0.31 0.30 0.26 0.23 0.22 0.21 0.19 0.17 0.21 0.26 0.30 0.29 0.27 0.28 0.26 0.29 0.26 0.24 0.25 0.23 0.22 0.21 0.21 0.23 0.25 0.23 0.26 0.26 0.25 0.26 0.25 0.27 0.43 0.55 0.57 0.65 0.99 1.00 1.08 1.04 1.03 1.10 1.10 1.12 1.18 1.20 1.26 1.31 1.28
0.79 0.78 0.75 0.72 0.70 0.67 0.63 0.61 0.60 0.59 0.59 0.59 0.59 0.59 0.57 0.57 0.56 0.54 0.55 0.55 0.56 0.55 0.55 0.54 0.57 0.52 0.38 0.40 0.25 0.17 0.32 0.34 0.35 0.37 0.38 0.40 0.38 0.33 0.31 0.31 0.28 0.24 0.22 0.20 0.19 0.19 0.19 0.22 0.30 0.31 0.27 0.26 0.26 0.26 0.26 0.26 0.27 0.24 0.23 0.21 0.21 0.23 0.24 0.24 0.23 0.23 0.25 0.24 0.26 0.25 0.26 0.31 0.36 0.43 0.59 0.91 1.06 1.04 0.94 1.00 1.05 1.09 1.12 1.19 1.24 1.26 1.31 1.30
0.81 0.80 0.78 0.76 0.72 0.69 0.66 0.63 0.61 0.60 0.59 0.59 0.59 0.58 0.57 0.56 0.56 0.55 0.54 0.55 0.56 0.57 0.55 0.54 0.54 0.52 0.43 0.35 0.28 0.21 0.37 0.39 0.40 0.36 0.35 0.39 0.40 0.37 0.36 0.37 0.31 0.25 0.22 0.18 0.18 0.19 0.19 0.21 0.29 0.28 0.23 0.27 0.22 0.26 0.25 0.28 0.26 0.24 0.23 0.18 0.18 0.20 0.21 0.23 0.22 0.22 0.25 0.24 0.26 0.26 0.23 0.29 0.31 0.37 0.68 0.84 1.02 1.02 0.92 0.96 1.03 1.06 1.12 1.19 1.24 1.28 1.28 1.30
0.81 0.80 0.78 0.77 0.75 0.71 0.68 0.65 0.62 0.60 0.59 0.58 0.57 0.57 0.57 0.56 0.55 0.55 0.54 0.55 0.57 0.57 0.56 0.55 0.54 0.51 0.40 0.23 0.25 0.29 0.39 0.49 0.41 0.35 0.37 0.41 0.40 0.40 0.43 0.42 0.34 0.28 0.24 0.19 0.18 0.19 0.19 0.20 0.24 0.25 0.28 0.25 0.24 0.21 0.26 0.26 0.24 0.23 0.20 0.19 0.17 0.18 0.19 0.23 0.24 0.23 0.22 0.24 0.25 0.23 0.15 0.17 0.25 0.56 0.72 0.84 0.91 0.95 0.91 0.94 1.02 1.05 1.08 1.13 1.17 1.20 1.25 1.29
0.82 0.82 0.81 0.79 0.76 0.73 0.71 0.67 0.63 0.60 0.58 0.57 0.56 0.55 0.55 0.54 0.54 0.55 0.55 0.54 0.56 0.56 0.55 0.54 0.53 0.45 0.36 0.25 0.27 0.32 0.35 0.40 0.38 0.34 0.37 0.40 0.35 0.36 0.39 0.45 0.39 0.34 0.30 0.23 0.20 0.20 0.19 0.19 0.21 0.24 0.28 0.24 0.22 0.27 0.24 0.23 0.24 0.20 0.20 0.19 0.16 0.16 0.17 0.23 0.23 0.23 0.21 0.23 0.23 0.22 0.14 0.14 0.19 0.60 0.78 0.81 0.84 0.80 0.78 0.89 0.98 1.01 1.05 1.10 1.14 1.16 1.17 1.26
0.75 0.81 0.83 0.82 0.79 0.75 0.72 0.69 0.65 0.61 0.59 0.57 0.54 0.53 0.52 0.53 0.54 0.54 0.56 0.55 0.55 0.55 0.54 0.54 0.51 0.41 0.29 0.26 0.34 0.32 0.35 0.42 0.38 0.37 0.41 0.37 0.34 0.32 0.34 0.41 0.38 0.37 0.35 0.30 0.24 0.22 0.21 0.19 0.19 0.19 0.21 0.25 0.25 0.22 0.21 0.21 0.22 0.21 0.18 0.15 0.16 0.15 0.18 0.21 0.23 0.22 0.20 0.21 0.22 0.20 0.14 0.14 0.17 0.46 0.79 0.82 0.85 0.79 0.73 0.87 0.95 1.01 1.04 1.07 1.10 1.11 1.15 1.20
0.70 0.77 0.81 0.80 0.80 0.78 0.74 0.71 0.66 0.63 0.59 0.56 0.53 0.50 0.50 0.52 0.55 0.55 0.56 0.55 0.56 0.57 0.57 0.44 0.42 0.35 0.29 0.20 0.24 0.38 0.31 0.28 0.30 0.39 0.42 0.39 0.35 0.31 0.34 0.34 0.38 0.38 0.37 0.32 0.32 0.29 0.27 0.24 0.18 0.18 0.20 0.22 0.20 0.19 0.19 0.18 0.19 0.20 0.18 0.16 0.15 0.16 0.17 0.19 0.22 0.22 0.22 0.20 0.20 0.18 0.14 0.15 0.18 0.53 0.77 0.85 0.81 0.76 0.73 0.81 0.88 0.96 1.00 1.03 1.07 1.08 1.11 1.13
0.66 0.69 0.78 0.83 0.81 0.79 0.76 0.72 0.67 0.64 0.60 0.56 0.52 0.50 0.50 0.53 0.55 0.55 0.55 0.56 0.53 0.56 0.48 0.34 0.44 0.43 0.18 0.26 0.39 0.24 0.21 0.26 0.34 0.39 0.39 0.40 0.36 0.34 0.33 0.30 0.30 0.32 0.38 0.39 0.36 0.32 0.30 0.24 0.23 0.20 0.21 0.19 0.19 0.19 0.16 0.15 0.16 0.17 0.19 0.17 0.17 0.16 0.17 0.17 0.21 0.22 0.22 0.19 0.17 0.19 0.16 0.17 0.20 0.53 0.78 0.87 0.78 0.72 0.68 0.76 0.84 0.93 0.96 1.02 1.07 1.06 1.05 1.04
0.63 0.67 0.74 0.78 0.80 0.81 0.77 0.73 0.68 0.65 0.62 0.57 0.52 0.49 0.46 0.49 0.53 0.54 0.52 0.53 0.54 0.45 0.44 0.52 0.49 0.34 0.22 0.28 0.22 0.22 0.25 0.24 0.32 0.38 0.40 0.41 0.38 0.34 0.32 0.28 0.29 0.32 0.34 0.33 0.34 0.26 0.27 0.21 0.22 0.16 0.17 0.17 0.18 0.17 0.14 0.12 0.14 0.16 0.17 0.17 0.17 0.18 0.18 0.17 0.17 0.19 0.19 0.18 0.17 0.18 0.17 0.18 0.22 0.36 0.66 0.79 0.79 0.70 0.69 0.73 0.82 0.87 0.93 0.99 1.03 1.01 1.01 1.00
0.62 0.64 0.69 0.76 0.83 0.82 0.78 0.74 0.69 0.66 0.63 0.59 0.54 0.52 0.48 0.49 0.52 0.54 0.46 0.45 0.38 0.31 0.21 0.26 0.28 0.15 0.13 0.20 0.24 0.26 0.27 0.29 0.31 0.37 0.36 0.38 0.37 0.35 0.33 0.32 0.26 0.28 0.25 0.24 0.25 0.23 0.24 0.21 0.20 0.16 0.13 0.14 0.15 0.15 0.14 0.15 0.17 0.17 0.18 0.18 0.18 0.17 0.18 0.17 0.20 0.22 0.21 0.19 0.18 0.18 0.17 0.18 0.24 0.36 0.60 0.72 0.81 0.73 0.74 0.80 0.84 0.88 0.91 0.94 0.94 0.96 0.98 0.99
0.59 0.61 0.67 0.75 0.79 0.82 0.79 0.75 0.70 0.66 0.65 0.58 0.50 0.43 0.36 0.30 0.34 0.31 0.42 0.40 0.30 0.23 0.23 0.26 0.27 0.22 0.22 0.28 0.30 0.33 0.37 0.39 0.27 0.32 0.37 0.39 0.33 0.31 0.29 0.27 0.24 0.25 0.26 0.18 0.21 0.20 0.24 0.16 0.14 0.12 0.13 0.14 0.16 0.16 0.16 0.17 0.18 0.18 0.18 0.18 0.18 0.17 0.18 0.19 0.19 0.21 0.22 0.21 0.20 0.20 0.18 0.20 0.24 0.36 0.55 0.75 0.83 0.80 0.77 0.75 0.74 0.78 0.82 0.86 0.88 0.91 0.98 1.00
0.56 0.59 0.63 0.69 0.76 0.80 0.80 0.76 0.73 0.68 0.65 0.58 0.51 0.38 0.22 0.23 0.23 0.24 0.37 0.37 0.36 0.33 0.27 0.27 0.29 0.25 0.20 0.25 0.32 0.30 0.26 0.29 0.32 0.31 0.34 0.39 0.33 0.27 0.24 0.24 0.20 0.18 0.21 0.22 0.20 0.22 0.23 0.16 0.14 0.15 0.15 0.15 0.16 0.17 0.16 0.16 0.18 0.17 0.17 0.17 0.16 0.18 0.16 0.18 0.19 0.21 0.22 0.20 0.19 0.21 0.21 0.22 0.23 0.41 0.54 0.69 0.79 0.77 0.79 0.72 0.71 0.74 0.79 0.83 0.86 0.92 0.99 1.03
0.54 0.58 0.60 0.64 0.67 0.77 0.79 0.77 0.74 0.70 0.67 0.60 0.48 0.33 0.33 0.31 0.50 0.54 0.44 0.28 0.35 0.38 0.37 0.35 0.36 0.28 0.29 0.31 0.33 0.35 0.33 0.27 0.26 0.29 0.34 0.36 0.30 0.23 0.22 0.21 0.18 0.16 0.19 0.21 0.21 0.19 0.17 0.14 0.16 0.18 0.18 0.18 0.17 0.17 0.16 0.16 0.15 0.17 0.16 0.17 0.17 0.17 0.18 0.19 0.20 0.21 0.21 0.20 0.19 0.21 0.20 0.21 0.23 0.31 0.50 0.59 0.71 0.83 0.84 0.72 0.72 0.73 0.76 0.81 0.89 0.93 0.99 1.03
0.51 0.54 0.59 0.63 0.71 0.79 0.78 0.77 0.75 0.70 0.63 0.51 0.40 0.37 0.33 0.38 0.55 0.59 0.53 0.41 0.33 0.39 0.35 0.34 0.31 0.29 0.26 0.32 0.33 0.33 0.26 0.24 0.22 0.27 0.29 0.31 0.28 0.23 0.21 0.19 0.18 0.17 0.18 0.20 0.17 0.17 0.14 0.16 0.18 0.21 0.20 0.17 0.16 0.16 0.16 0.16 0.16 0.16 0.16 0.16 0.15 0.17 0.17 0.16 0.19 0.20 0.21 0.19 0.18 0.20 0.19 0.20 0.23 0.27 0.48 0.52 0.64 0.80 0.89 0.84 0.80 0.78 0.74 0.80 0.85 0.92 0.96 0.98
0.48 0.54 0.57 0.58 0.65 0.72 0.75 0.77 0.76 0.66 0.54 0.49 0.44 0.40 0.44 0.49 0.55 0.56 0.46 0.30 0.25 0.31 0.35 0.35 0.33 0.30 0.27 0.27 0.31 0.28 0.24 0.25 0.26 0.24 0.33 0.30 0.25 0.24 0.20 0.18 0.18 0.17 0.16 0.18 0.18 0.17 0.16 0.18 0.21 0.22 0.21 0.18 0.15 0.16 0.15 0.14 0.14 0.17 0.17 0.16 0.15 0.16 0.17 0.18 0.18 0.20 0.21 0.20 0.21 0.20 0.20 0.20 0.22 0.24 0.37 0.54 0.60 0.75 0.86 0.90 0.89 0.94 0.94 0.94 0.99 1.00 0.97 0.91
0.47 0.49 0.54 0.57 0.59 0.74 0.77 0.77 0.66 0.55 0.55 0.50 0.45 0.48 0.50 0.55 0.58 0.58 0.41 0.31 0.28 0.25 0.35 0.35 0.39 0.33 0.29 0.41 0.40 0.28 0.28 0.28 0.27 0.30 0.33 0.31 0.27 0.24 0.18 0.20 0.18 0.15 0.17 0.20 0.20 0.19 0.19 0.21 0.21 0.21 0.20 0.19 0.17 0.15 0.14 0.14 0.14 0.16 0.18 0.17 0.16 0.17 0.18 0.19 0.20 0.20 0.18 0.17 0.20 0.19 0.16 0.17 0.21 0.24 0.28 0.49 0.62 0.67 0.80 0.79 0.81 0.86 0.90 0.94 0.92 0.92 0.97 1.00
0.48 0.48 0.53 0.57 0.67 0.75 0.80 0.62 0.57 0.55 0.48 0.44 0.46 0.53 0.59 0.62 0.62 0.59 0.41 0.24 0.16 0.21 0.30 0.21 0.38 0.27 0.37 0.31 0.34 0.31 0.33 0.25 0.30 0.31 0.32 0.31 0.32 0.24 0.20 0.18 0.18 0.15 0.18 0.20 0.19 0.20 0.20 0.24 0.22 0.20 0.20 0.19 0.17 0.15 0.15 0.15 0.13 0.15 0.16 0.18 0.18 0.18 0.19 0.19 0.19 0.19 0.16 0.14 0.18 0.20 0.16 0.15 0.20 0.24 0.33 0.42 0.52 0.61 0.77 0.79 0.80 0.85 0.89 0.92 0.89 0.88 0.90 0.92
0.47 0.47 0.52 0.58 0.65 0.76 0.62 0.50 0.59 0.53 0.43 0.43 0.54 0.59 0.60 0.60 0.65 0.56 0.30 0.19 0.14 0.21 0.18 0.26 0.28 0.33 0.33 0.30 0.30 0.33 0.18 0.20 0.31 0.32 0.30 0.32 0.27 0.28 0.17 0.16 0.18 0.19 0.22 0.24 0.21 0.17 0.20 0.21 0.22 0.21 0.20 0.18 0.16 0.15 0.15 0.15 0.13 0.13 0.18 0.18 0.20 0.19 0.19 0.20 0.21 0.20 0.19 0.20 0.21 0.20 0.19 0.16 0.16 0.27 0.37 0.43 0.49 0.57 0.65 0.74 0.80 0.85 0.89 0.88 0.86 0.87 0.88 0.92
0.47 0.47 0.51 0.57 0.63 0.72 0.62 0.63 0.54 0.42 0.44 0.55 0.58 0.59 0.60 0.59 0.62 0.54 0.28 0.12 0.11 0.28 0.20 0.26 0.26 0.45 0.33 0.30 0.33 0.25 0.24 0.29 0.22 0.26 0.31 0.32 0.29 0.24 0.19 0.16 0.16 0.17 0.22 0.23 0.15 0.18 0.20 0.19 0.20 0.19 0.19 0.17 0.16 0.15 0.15 0.16 0.13 0.12 0.18 0.20 0.20 0.21 0.21 0.22 0.22 0.21 0.21 0.20 0.17 0.19 0.21 0.17 0.17 0.31 0.49 0.50 0.45 0.53 0.58 0.66 0.75 0.82 0.85 0.85 0.85 0.86 0.89 0.95
0.47 0.47 0.50 0.57 0.62 0.73 0.73 0.62 0.54 0.42 0.54 0.59 0.58 0.57 0.56 0.61 0.54 0.34 0.22 0.12 0.26 0.22 0.38 0.22 0.37 0.36 0.33 0.32 0.28 0.27 0.27 0.28 0.22 0.27 0.32 0.31 0.28 0.24 0.18 0.17 0.18 0.18 0.23 0.24 0.19 0.21 0.21 0.20 0.20 0.21 0.18 0.16 0.17 0.17 0.16 0.16 0.13 0.13 0.18 0.21 0.22 0.23 0.23 0.24 0.23 0.22 0.22 0.19 0.16 0.18 0.20 0.16 0.19 0.39 0.45 0.57 0.45 0.46 0.56 0.65 0.72 0.78 0.80 0.81 0.80 0.82 0.89 0.98
0.47 0.47 0.51 0.57 0.65 0.68 0.69 0.68 0.52 0.55 0.60 0.60 0.58 0.59 0.56 0.50 0.41 0.23 0.17 0.10 0.29 0.19 0.27 0.27 0.25 0.25 0.31 0.23 0.22 0.26 0.25 0.26 0.28 0.28 0.29 0.25 0.25 0.24 0.22 0.22 0.20 0.18 0.20 0.25 0.25 0.25 0.23 0.23 0.24 0.22 0.19 0.19 0.18 0.17 0.16 0.16 0.15 0.15 0.19 0.19 0.21 0.23 0.23 0.24 0.24 0.23 0.22 0.16 0.16 0.19 0.20 0.18 0.18 0.36 0.41 0.43 0.46 0.50 0.60 0.68 0.75 0.80 0.83 0.82 0.82 0.83 0.89 0.95
0.48 0.48 0.52 0.63 0.58 0.65 0.66 0.51 0.50 0.61 0.64 0.63 0.63 0.59 0.49 0.37 0.25 0.18 0.12 0.19 0.27 0.26 0.30 0.26 0.21 0.29 0.26 0.20 0.18 0.25 0.25 0.25 0.26 0.26 0.24 0.26 0.24 0.23 0.21 0.19 0.20 0.19 0.20 0.23 0.23 0.25 0.26 0.24 0.21 0.22 0.24 0.23 0.22 0.18 0.17 0.18 0.16 0.16 0.18 0.19 0.20 0.21 0.23 0.22 0.22 0.23 0.18 0.15 0.17 0.20 0.20 0.19 0.16 0.31 0.47 0.51 0.60 0.63 0.56 0.57 0.63 0.70 0.74 0.77 0.80 0.85 0.92 0.97
0.49 0.49 0.54 0.62 0.65 0.71 0.55 0.43 0.58 0.66 0.64 0.64 0.59 0.48 0.36 0.20 0.26 0.15 0.14 0.34 0.19 0.25 0.25 0.22 0.25 0.24 0.24 0.23 0.20 0.21 0.21 0.23 0.26 0.24 0.23 0.23 0.22 0.20 0.19 0.16 0.17 0.15 0.16 0.19 0.19 0.24 0.23 0.24 0.23 0.22 0.25 0.23 0.21 0.18 0.16 0.17 0.16 0.15 0.18 0.19 0.17 0.17 0.19 0.17 0.19 0.16 0.16 0.15 0.18 0.21 0.21 0.18 0.17 0.32 0.50 0.58 0.62 0.71 0.68 0.58 0.59 0.65 0.71 0.74 0.79 0.85 0.91 0.96
0.50 0.51 0.57 0.63 0.68 0.64 0.60 0.62 0.67 0.66 0.67 0.63 0.52 0.45 0.27 0.19 0.11 0.19 0.23 0.29 0.23 0.31 0.26 0.27 0.24 0.23 0.23 0.21 0.19 0.22 0.24 0.20 0.24 0.24 0.25 0.25 0.23 0.21 0.22 0.20 0.19 0.18 0.14 0.19 0.21 0.21 0.22 0.26 0.26 0.24 0.24 0.24 0.22 0.17 0.15 0.14 0.15 0.14 0.16 0.18 0.16 0.15 0.15 0.15 0.16 0.18 0.17 0.18 0.21 0.20 0.22 0.17 0.28 0.39 0.57 0.59 0.66 0.73 0.75 0.78 0.73 0.69 0.68 0.74 0.81 0.87 0.91 0.94
0.51 0.55 0.57 0.64 0.68 0.66 0.63 0.66 0.66 0.68 0.63 0.57 0.44 0.34 0.26 0.16 0.14 0.27 0.27 0.29 0.30 0.39 0.36 0.27 0.28 0.25 0.23 0.18 0.19 0.22 0.20 0.22 0.23 0.23 0.24 0.22 0.22 0.20 0.21 0.21 0.21 0.19 0.19 0.22 0.20 0.21 0.18 0.20 0.23 0.25 0.20 0.24 0.22 0.20 0.18 0.15 0.14 0.14 0.17 0.19 0.17 0.17 0.16 0.14 0.16 0.14 0.14 0.16 0.18 0.23 0.18 0.17 0.21 0.32 0.59 0.64 0.71 0.79 0.83 0.83 0.83 0.83 0.84 0.87 0.90 0.91 0.92 0.92
0.56 0.58 0.62 0.66 0.69 0.65 0.65 0.65 0.66 0.66 0.60 0.51 0.37 0.26 0.15 0.14 0.23 0.25 0.26 0.33 0.38 0.40 0.36 0.39 0.28 0.24 0.22 0.21 0.21 0.23 0.22 0.19 0.22 0.21 0.22 0.21 0.19 0.20 0.19 0.19 0.22 0.22 0.21 0.20 0.23 0.23 0.21 0.20 0.24 0.28 0.26 0.26 0.22 0.23 0.24 0.18 0.16 0.16 0.17 0.20 0.18 0.17 0.22 0.18 0.19 0.17 0.16 0.16 0.17 0.21 0.27 0.43 0.36 0.66 0.69 0.71 0.74 0.78 0.86 0.86 0.88 0.86 0.88 0.90 0.88 0.87 0.87 0.89
0.57 0.59 0.64 0.61 0.61 0.59 0.64 0.63 0.65 0.64 0.56 0.44 0.30 0.20 0.16 0.20 0.23 0.34 0.34 0.44 0.41 0.36 0.36 0.37 0.31 0.23 0.22 0.20 0.21 0.20 0.23 0.20 0.20 0.20 0.20 0.21 0.22 0.20 0.22 0.21 0.21 0.23 0.21 0.19 0.24 0.20 0.22 0.21 0.27 0.28 0.29 0.27 0.25 0.25 0.23 0.21 0.13 0.15 0.16 0.14 0.16 0.24 0.23 0.21 0.20 0.24 0.20 0.17 0.19 0.38 0.35 0.49 0.61 0.66 0.68 0.69 0.71 0.77 0.83 0.84 0.87 0.86 0.87 0.87 0.84 0.85 0.86 0.89
0.53 0.59 0.51 0.57 0.58 0.58 0.60 0.62 0.63 0.57 0.50 0.37 0.25 0.18 0.22 0.26 0.37 0.37 0.43 0.41 0.42 0.43 0.37 0.28 0.26 0.22 0.20 0.18 0.18 0.19 0.19 0.21 0.20 0.19 0.18 0.23 0.21 0.22 0.22 0.22 0.24 0.24 0.24 0.23 0.24 0.28 0.21 0.21 0.28 0.27 0.26 0.29 0.31 0.27 0.25 0.22 0.20 0.17 0.13 0.14 0.20 0.26 0.26 0.22 0.17 0.18 0.17 0.14 0.22 0.34 0.28 0.35 0.36 0.33 0.66 0.68 0.66 0.71 0.76 0.80 0.83 0.85 0.85 0.80 0.81 0.83 0.86 0.88
0.53 0.53 0.56 0.52 0.55 0.56 0.58 0.61 0.59 0.51 0.42 0.32 0.22 0.23 0.28 0.27 0.38 0.43 0.46 0.44 0.44 0.43 0.37 0.35 0.31 0.32 0.20 0.19 0.18 0.18 0.18 0.16 0.18 0.18 0.17 0.21 0.19 0.26 0.24 0.23 0.25 0.24 0.25 0.27 0.26 0.27 0.27 0.21 0.25 0.28 0.28 0.30 0.32 0.28 0.25 0.25 0.24 0.19 0.16 0.21 0.17 0.16 0.17 0.21 0.20 0.15 0.14 0.14 0.21 0.30 0.34 0.34 0.36 0.37 0.57 0.56 0.60 0.64 0.69 0.75 0.77 0.78 0.80 0.79 0.80 0.83 0.86 0.90
0.54 0.50 0.40 0.48 0.56 0.54 0.58 0.62 0.54 0.45 0.35 0.25 0.23 0.20 0.25 0.33 0.41 0.42 0.45 0.46 0.47 0.41 0.36 0.37 0.31 0.33 0.32 0.20 0.19 0.19 0.18 0.15 0.18 0.17 0.16 0.18 0.18 0.25 0.24 0.25 0.23 0.25 0.26 0.27 0.26 0.28 0.28 0.22 0.23 0.29 0.28 0.30 0.30 0.28 0.21 0.21 0.24 0.25 0.23 0.20 0.21 0.20 0.18 0.18 0.19 0.19 0.17 0.14 0.18 0.27 0.32 0.28 0.46 0.50 0.57 0.51 0.60 0.63 0.68 0.71 0.74 0.77 0.79 0.81 0.82 0.82 0.82 0.83
0.46 0.41 0.38 0.54 0.55 0.56 0.62 0.58 0.47 0.40 0.31 0.22 0.23 0.23 0.32 0.33 0.39 0.44 0.46 0.46 0.42 0.40 0.39 0.38 0.38 0.33 0.34 0.30 0.27 0.19 0.18 0.17 0.17 0.17 0.17 0.19 0.18 0.26 0.24 0.26 0.24 0.24 0.26 0.27 0.27 0.30 0.26 0.28 0.22 0.26 0.29 0.29 0.25 0.26 0.22 0.23 0.19 0.20 0.20 0.19 0.19 0.19 0.23 0.22 0.23 0.19 0.17 0.16 0.17 0.24 0.24 0.31 0.48 0.63 0.66 0.66 0.68 0.71 0.73 0.74 0.77 0.80 0.82 0.86 0.86 0.85 0.85 0.87
0.52 0.42 0.38 0.54 0.56 0.57 0.55 0.48 0.37 0.30 0.26 0.28 0.29 0.28 0.32 0.33 0.38 0.41 0.45 0.48 0.45 0.49 0.42 0.38 0.37 0.33 0.34 0.30 0.29 0.30 0.21 0.18 0.17 0.17 0.17 0.19 0.18 0.18 0.23 0.24 0.24 0.24 0.26 0.26 0.27 0.29 0.26 0.26 0.24 0.26 0.24 0.24 0.24 0.27 0.26 0.26 0.24 0.21 0.20 0.19 0.19 0.18 0.18 0.16 0.16 0.21 0.19 0.17 0.18 0.20 0.20 0.32 0.52 0.72 0.72 0.70 0.72 0.72 0.76 0.78 0.79 0.82 0.85 0.86 0.88 0.89 0.90 0.90
0.43 0.32 0.36 0.55 0.58 0.53 0.42 0.29 0.31 0.34 0.29 0.25 0.25 0.28 0.28 0.37 0.37 0.40 0.44 0.48 0.46 0.42 0.47 0.41 0.39 0.36 0.36 0.35 0.34 0.33 0.31 0.20 0.18 0.17 0.18 0.18 0.19 0.19 0.21 0.25 0.24 0.24 0.24 0.24 0.26 0.30 0.29 0.29 0.27 0.24 0.24 0.24 0.26 0.28 0.28 0.28 0.27 0.24 0.23 0.21 0.22 0.23 0.22 0.18 0.15 0.16 0.19 0.20 0.26 0.25 0.21 0.28 0.59 0.71 0.75 0.74 0.74 0.75 0.77 0.79 0.79 0.83 0.85 0.88 0.90 0.92 0.93 0.93
0.41 0.36 0.53 0.57 0.54 0.46 0.33 0.24 0.27 0.25 0.23 0.25 0.31 0.32 0.35 0.35 0.36 0.40 0.42 0.45 0.41 0.43 0.40 0.38 0.37 0.35 0.38 0.37 0.37 0.36 0.34 0.27 0.19 0.17 0.19 0.19 0.19 0.21 0.23 0.25 0.26 0.23 0.25 0.26 0.29 0.30 0.32 0.27 0.27 0.26 0.29 0.29 0.29 0.29 0.28 0.28 0.28 0.26 0.26 0.26 0.24 0.22 0.22 0.20 0.18 0.19 0.18 0.21 0.20 0.24 0.20 0.34 0.59 0.73 0.77 0.78 0.79 0.80 0.83 0.83 0.81 0.82 0.85 0.87 0.89 0.90 0.90 0.89
0.44 0.41 0.45 0.56 0.54 0.49 0.30 0.19 0.20 0.22 0.26 0.32 0.33 0.33 0.39 0.38 0.39 0.40 0.41 0.42 0.40 0.39 0.38 0.38 0.39 0.43 0.38 0.43 0.42 0.36 0.35 0.25 0.24 0.20 0.19 0.20 0.20 0.24 0.26 0.26 0.27 0.24 0.22 0.25 0.26 0.31 0.26 0.29 0.28 0.25 0.24 0.24 0.25 0.27 0.26 0.27 0.26 0.24 0.24 0.25 0.25 0.24 0.24 0.23 0.22 0.25 0.19 0.21 0.20 0.19 0.18 0.30 0.57 0.73 0.76 0.76 0.78 0.77 0.79 0.85 0.86 0.82 0.85 0.86 0.86 0.88 0.89 0.90
0.47 0.49 0.48 0.47 0.53 0.47 0.29 0.32 0.30 0.28 0.30 0.32 0.33 0.30 0.32 0.37 0.43 0.44 0.43 0.40 0.42 0.39 0.39 0.36 0.38 0.39 0.41 0.44 0.42 0.39 0.37 0.34 0.25 0.28 0.29 0.23 0.22 0.26 0.28 0.28 0.28 0.25 0.25 0.27 0.30 0.34 0.28 0.30 0.29 0.24 0.20 0.18 0.18 0.18 0.19 0.21 0.23 0.25 0.26 0.26 0.25 0.23 0.23 0.22 0.19 0.20 0.18 0.24 0.24 0.21 0.25 0.40 0.58 0.68 0.68 0.71 0.72 0.73 0.78 0.81 0.85 0.87 0.86 0.86 0.88 0.90 0.90 0.90
0.40 0.29 0.40 0.42 0.46 0.43 0.40 0.44 0.39 0.34 0.31 0.33 0.32 0.35 0.39 0.38 0.43 0.46 0.44 0.40 0.42 0.40 0.40 0.38 0.39 0.42 0.43 0.41 0.39 0.36 0.35 0.38 0.33 0.27 0.29 0.28 0.27 0.26 0.28 0.29 0.27 0.26 0.26 0.29 0.33 0.33 0.30 0.33 0.32 0.30 0.27 0.24 0.25 0.25 0.28 0.27 0.26 0.23 0.24 0.24 0.24 0.24 0.25 0.24 0.23 0.20 0.18 0.24 0.24 0.28 0.29 0.38 0.45 0.55 0.59 0.64 0.67 0.66 0.68 0.73 0.75 0.78 0.83 0.86 0.88 0.89 0.89 0.90
0.45 0.32 0.33 0.28 0.39 0.38 0.36 0.41 0.37 0.38 0.34 0.39 0.32 0.38 0.37 0.40 0.41 0.41 0.45 0.35 0.39 0.39 0.38 0.38 0.39 0.37 0.40 0.39 0.38 0.34 0.36 0.35 0.36 0.34 0.33 0.32 0.30 0.35 0.33 0.30 0.33 0.31 0.28 0.29 0.34 0.34 0.32 0.30 0.31 0.32 0.31 0.30 0.34 0.33 0.32 0.28 0.26 0.27 0.25 0.24 0.25 0.24 0.25 0.24 0.21 0.19 0.22 0.22 0.21 0.35 0.38 0.31 0.41 0.51 0.57 0.61 0.66 0.69 0.72 0.73 0.75 0.78 0.80 0.82 0.84 0.87 0.90 0.91
0.35 0.37 0.40 0.41 0.30 0.27 0.32 0.33 0.39 0.37 0.40 0.41 0.38 0.42 0.38 0.38 0.38 0.35 0.40 0.41 0.40 0.39 0.34 0.36 0.40 0.41 0.44 0.41 0.41 0.34 0.34 0.33 0.33 0.31 0.36 0.34 0.33 0.37 0.34 0.34 0.33 0.35 0.32 0.30 0.33 0.32 0.30 0.28 0.32 0.33 0.31 0.34 0.35 0.35 0.35 0.32 0.33 0.34 0.32 0.29 0.27 0.29 0.27 0.24 0.23 0.24 0.24 0.19 0.19 0.32 0.38 0.32 0.41 0.48 0.55 0.61 0.64 0.65 0.68 0.72 0.76 0.79 0.80 0.81 0.83 0.83 0.85 0.86
0.47 0.44 0.41 0.46 0.34 0.39 0.36 0.36 0.39 0.37 0.37 0.39 0.38 0.39 0.37 0.37 0.35 0.38 0.37 0.36 0.40 0.38 0.38 0.32 0.38 0.43 0.46 0.47 0.42 0.36 0.35 0.29 0.29 0.36 0.36 0.36 0.39 0.38 0.33 0.32 0.34 0.35 0.32 0.31 0.29 0.33 0.30 0.29 0.31 0.32 0.32 0.33 0.35 0.34 0.35 0.33 0.35 0.35 0.34 0.34 0.35 0.31 0.30 0.29 0.27 0.27 0.26 0.23 0.26 0.32 0.36 0.36 0.43 0.52 0.60 0.68 0.75 0.74 0.74 0.77 0.78 0.77 0.77 0.79 0.80 0.82 0.83 0.84
0.39 0.40 0.36 0.48 0.44 0.41 0.43 0.41 0.40 0.39 0.35 0.39 0.35 0.38 0.38 0.37 0.35 0.38 0.41 0.39 0.35 0.38 0.43 0.38 0.41 0.45 0.47 0.47 0.45 0.40 0.41 0.43 0.40 0.36 0.42 0.43 0.39 0.41 0.36 0.39 0.37 0.35 0.33 0.31 0.29 0.33 0.28 0.29 0.33 0.31 0.31 0.33 0.37 0.37 0.35 0.34 0.33 0.32 0.37 0.37 0.35 0.35 0.34 0.34 0.31 0.32 0.31 0.32 0.36 0.37 0.40 0.42 0.58 0.69 0.70 0.76 0.76 0.77 0.76 0.72 0.72 0.75 0.77 0.78 0.79 0.80 0.82 0.82
0.53 0.56 0.51 0.40 0.35 0.40 0.44 0.43 0.39 0.37 0.35 0.39 0.37 0.40 0.40 0.39 0.39 0.43 0.43 0.50 0.41 0.39 0.40 0.39 0.42 0.44 0.47 0.47 0.46 0.44 0.47 0.48 0.47 0.45 0.49 0.47 0.39 0.45 0.40 0.39 0.44 0.32 0.32 0.33 0.31 0.31 0.29 0.32 0.35 0.30 0.27 0.30 0.36 0.35 0.34 0.34 0.32 0.30 0.32 0.35 0.35 0.32 0.28 0.34 0.31 0.39 0.31 0.32 0.37 0.39 0.36 0.39 0.57 0.69 0.72 0.74 0.72 0.70 0.67 0.69 0.70 0.73 0.77 0.78 0.78 0.78 0.79 0.80
0.60 0.60 0.61 0.49 0.35 0.41 0.37 0.41 0.39 0.36 0.33 0.41 0.44 0.43 0.42 0.41 0.45 0.42 0.37 0.48 0.49 0.48 0.46 0.44 0.45 0.43 0.44 0.45 0.43 0.45 0.49 0.52 0.52 0.53 0.53 0.55 0.55 0.53 0.52 0.49 0.44 0.36 0.34 0.34 0.35 0.31 0.29 0.30 0.27 0.27 0.25 0.30 0.36 0.36 0.32 0.31 0.28 0.25 0.27 0.37 0.40 0.39 0.41 0.43 0.43 0.42 0.39 0.38 0.36 0.31 0.31 0.41 0.51 0.61 0.61 0.65 0.68 0.69 0.69 0.68 0.69 0.73 0.77 0.79 0.80 0.80 0.82 0.83
Wind_Speed
25 25 25 25 25 25 25 25 25 25 26 26 26 26 26 26 26 26 26 27 27 27 26 26 26 26 25 25 25 25 25 26 26 25 24 25 24 23 22 21 21 20 20 20 19 19 20 20 21 21 20 19 19 19 20 20 20 19 17 17 17 16 15 15 15 14 11 9 10 12 11 13 13 12 12 10 9 9 7 7 7 8 8 10 12 14 13 13
26 25 25 25 25 25 25 26 26 26 26 26 26 26 26 26 26 26 26 27 27 27 27 27 26 26 26 25 25 25 25 26 27 26 26 27 25 23 24 23 22 20 19 19 19 19 19 20 21 21 20 19 19 20 20 20 20 19 17 17 17 16 15 15 14 13 11 10 11 12 12 13 15 15 13 11 11 9 7 8 9 9 9 11 13 14 13 14
26 26 26 26 26 26 26 26 26 26 26 26 26 26 26 26 26 26 26 27 27 27 27 27 27 26 26 26 25 25 25 25 26 26 27 28 27 25 24 24 23 21 20 19 19 19 19 19 19 20 20 20 20 20 20 20 20 19 18 17 17 15 15 15 14 13 13 13 11 12 12 12 14 15 13 13 12 10 11 12 12 12 13 13 13 14 14 14
27 27 27 26 27 26 26 26 26 26 26 26 26 26 26 26 26 26 27 27 27 27 27 27 27 26 26 26 26 25 24 24 25 25 26 27 27 26 25 24 23 22 21 19 19 19 19 18 18 19 20 20 20 21 20 21 20 19 19 17 17 16 16 16 15 14 15 14 13 13 12 10 12 14 14 13 11 12 14 15 15 15 16 15 15 15 14 14
28 27 27 27 27 27 27 27 27 27 26 26 26 26 27 27 27 27 27 26 26 26 27 27 26 26 26 26 26 24 23 22 23 23 24 25 25 26 26 24 23 23 21 20 19 19 20 19 19 19 19 20 20 20 20 22 21 19 19 18 19 19 17 17 16 15 16 14 13 13 12 11 12 13 15 13 12 13 15 15 16 16 16 16 16 15 14 14
29 28 28 28 28 27 27 27 27 27 27 27 26 26 26 26 27 27 27 27 26 26 26 26 26 26 26 26 25 24 23 22 21 20 22 22 24 26 26 25 23 23 22 20 20 19 20 20 20 19 18 19 20 21 21 21 20 19 18 18 20 21 19 18 17 16 16 14 14 14 13 12 10 11 14 12 11 13 13 14 15 15 15 15 15 15 14 14
30 29 29 29 28 28 28 28 28 28 28 27 27 26 26 26 26 26 26 26 26 26 26 26 26 26 26 25 25 24 24 24 22 20 19 20 22 24 25 25 24 23 22 21 20 20 20 20 20 20 18 18 20 21 21 20 20 19 18 18 20 22 21 20 18 17 17 15 15 15 13 12 10 11 12 10 10 13 13 14 14 14 14 15 15 14 14 14
31 30 30 29 29 29 28 28 28 28 28 28 27 27 26 26 26 26 26 26 26 26 26 26 26 26 25 25 24 24 24 26 25 21 20 20 21 22 24 25 25 24 23 22 22 21 20 20 21 20 18 19 19 20 21 20 20 20 20 20 20 21 22 21 19 19 19 17 16 15 12 11 11 10 10 11 13 14 14 14 14 14 15 15 15 14 14 14
32 31 31 30 30 29 29 29 29 28 28 28 27 27 27 26 26 26 26 25 25 25 26 26 25 25 24 24 24 23 24 26 26 25 23 21 21 22 23 24 25 25 24 23 23 21 21 21 21 20 19 19 20 20 20 20 19 19 20 21 20 21 22 21 19 19 19 18 17 16 13 12 11 10 10 12 14 15 16 15 15 15 15 14 14 14 14 13
33 32 32 31 30 30 29 29 29 29 28 28 28 27 27 26 26 26 26 25 25 25 25 25 25 24 24 24 23 22 22 24 26 26 25 24 23 23 24 24 25 25 25 24 23 23 22 21 21 20 19 19 20 20 20 20 19 18 19 20 20 21 22 20 18 18 19 17 17 18 15 13 13 12 12 14 15 16 15 15 15 15 14 14 14 14 14 13
34 33 33 32 31 30 30 30 30 29 29 28 28 28 27 27 26 26 26 26 25 25 24 24 24 24 24 24 24 23 22 22 23 24 25 25 25 25 24 24 25 25 25 24 24 24 23 22 21 19 19 19 20 20 20 21 19 19 19 20 21 22 21 20 19 19 18 16 16 17 16 15 14 14 16 17 16 17 16 15 15 14 13 13 14 14 13 13
35 34 33 33 32 31 30 30 30 30 29 29 28 28 28 27 27 26 26 26 25 25 24 24 23 24 24 25 26 25 23 22 22 23 24 25 25 26 25 24 24 25 26 25 24 24 24 23 21 20 20 19 19 19 20 19 18 19 20 19 20 20 21 21 20 19 17 16 16 14 15 16 15 15 18 18 17 17 16 16 15 14 13 13 13 14 13 13
36 35 34 33 33 32 31 31 30 30 30 29 29 28 28 28 27 27 27 26 26 25 25 24 24 24 24 25 26 26 25 24 23 23 24 24 25 26 26 25 24 25 25 25 25 24 24 24 23 22 21 20 20 20 19 19 18 19 19 19 19 18 20 21 20 20 18 16 16 14 15 18 17 17 19 19 19 18 16 16 15 14 13 13 13 13 13 13
35 36 35 34 33 33 32 31 30 30 30 29 29 29 28 28 28 27 27 26 26 26 25 25 24 24 25 25 26 28 28 27 26 25 25 24 24 25 26 26 25 24 24 24 24 24 24 24 23 22 22 22 22 20 19 19 19 19 19 19 19 19 20 20 19 19 17 16 15 14 16 18 17 19 21 20 21 20 17 17 15 14 14 13 13 13 14 13
35 36 36 35 34 34 33 32 31 30 30 29 29 29 28 28 28 27 27 27 26 26 26 25 25 25 25 26 26 27 28 28 27 27 26 25 24 24 25 26 26 25 24 24 24 23 24 23 23 22 22 22 21 20 19 19 19 19 19 19 19 19 19 19 18 19 18 15 14 14 16 17 16 20 23 22 21 20 18 17 16 14 14 13 13 13 14 14
36 36 36 36 35 34 33 32 31 30 30 29 29 29 29 29 28 27 27 26 26 26 25 25 25 26 25 24 25 26 27 27 27 27 26 25 24 24 25 26 27 27 25 25 24 24 24 23 23 23 23 22 22 21 19 19 19 19 19 19 19 19 18 17 17 18 19 15 14 15 15 16 16 19 23 23 22 20 18 18 16 15 14 14 13 13 14 14
36 36 36 36 36 35 34 32 31 30 29 29 29 29 28 28 28 27 26 26 25 25 25 24 24 26 26 24 24 26 27 27 28 27 26 25 25 25 24 24 26 27 26 25 25 25 24 23 22 22 23 23 22 21 20 20 20 19 19 19 19 18 18 17 17 17 18 17 15 15 16 17 16 19 23 23 22 20 19 19 17 15 14 14 14 14 14 14
36 36 36 36 36 35 34 32 30 29 28 28 28 28 28 28 28 27 26 25 24 24 25 25 24 24 25 25 25 25 26 28 29 28 27 26 26 25 25 23 24 26 25 25 25 25 24 23 22 22 22 23 23 22 22 21 21 20 19 19 18 18 17 18 17 17 17 18 17 15 17 18 17 18 21 23 23 21 20 20 18 16 15 15 14 14 14 13
36 36 36 35 35 34 33 32 30 29 28 27 28 28 27 27 27 26 26 26 25 24 24 26 26 23 22 24 25 24 24 27 29 30 29 27 26 26 25 24 24 26 26 24 25 26 25 23 23 23 23 24 23 22 22 20 20 20 20 19 19 18 17 17 17 17 17 17 17 16 17 19 18 19 20 22 24 22 21 19 18 17 16 15 14 13 14 14
36 35 35 34 34 33 32 31 30 28 27 26 26 26 24 24 25 26 27 27 28 27 25 26 28 26 23 23 23 22 22 25 28 30 30 29 27 26 26 25 25 26 26 25 25 26 25 24 25 24 24 23 22 21 21 20 19 20 19 18 19 18 18 17 17 17 16 16 17 16 18 19 18 19 19 20 22 22 21 20 18 17 16 15 14 13 14 14
36 35 35 34 34 33 32 31 29 27 27 26 25 24 23 24 24 24 26 27 29 30 28 27 28 28 27 26 24 22 22 24 27 29 30 31 28 27 26 26 25 25 26 26 25 25 26 27 26 24 23 23 22 21 20 20 20 20 19 18 18 18 17 18 17 17 16 16 17 16 18 20 19 19 19 19 21 22 22 20 19 17 16 15 14 14 14 13
36 35 35 34 33 33 31 30 28 26 26 25 25 25 25 25 25 24 24 26 28 30 30 29 28 28 29 29 27 25 24 25 26 28 29 31 31 28 27 27 26 26 25 26 26 26 28 28 26 24 23 22 21 21 21 20 20 20 19 18 18 17 16 17 18 17 17 17 17 16 18 20 19 19 20 20 22 23 23 22 20 18 16 15 15 15 15 14
35 34 34 33 32 32 31 29 27 26 25 25 25 25 26 26 26 25 24 25 26 28 29 29 28 27 29 29 27 27 26 26 26 27 29 31 32 30 28 27 27 26 26 28 28 28 28 27 26 24 23 22 21 21 21 20 20 20 19 18 18 18 16 17 17 16 17 17 16 16 17 19 18 19 20 20 22 23 22 21 19 18 17 16 16 16 15 14
34 34 33 33 32 31 31 29 27 26 25 25 25 26 25 25 26 24 24 24 25 26 27 28 27 27 29 28 25 26 27 27 27 27 29 31 32 30 29 28 27 27 28 29 29 28 26 25 26 25 23 23 22 21 21 21 20 20 20 19 18 18 17 17 16 14 15 16 15 15 16 19 20 20 21 20 20 21 20 19 17 16 16 16 16 15 14 13
33 33 33 32 30 30 30 28 27 25 24 24 24 23 23 25 25 24 22 22 23 24 25 27 26 26 29 28 26 26 25 27 28 28 28 31 32 30 29 28 28 29 29 29 29 28 27 25 26 26 24 24 23 22 22 21 21 20 20 20 19 17 16 16 15 13 14 17 18 18 16 18 21 22 22 20 19 20 20 19 18 17 17 17 15 14 13 12
32 32 33 31 29 29 29 27 25 23 22 23 22 20 21 23 24 23 21 19 21 22 23 24 23 24 28 29 27 25 23 25 28 28 28 31 32 30 28 28 28 29 28 28 27 27 27 26 26 27 25 25 24 24 23 22 22 21 20 20 19 17 16 16 14 13 14 16 19 19 17 16 19 22 23 21 20 20 21 20 19 18 18 17 15 14 13 12
29 31 32 32 30 29 28 25 23 22 22 21 19 19 20 21 22 21 18 16 18 20 21 22 22 22 25 28 28 25 23 23 26 27 28 30 31 30 29 28 28 28 27 27 27 28 29 28 27 27 26 26 26 25 24 23 22 21 19 19 18 18 17 15 14 14 14 14 16 18 17 15 17 21 22 21 20 21 22 21 20 19 18 16 15 14 13 12
26 28 30 31 30 29 28 25 23 22 22 20 19 19 19 20 21 19 16 15 15 16 18 21 22 21 23 27 29 26 23 22 23 25 27 30 31 30 29 29 28 28 27 28 29 27 28 29 28 28 27 26 26 25 24 23 22 21 20 19 18 18 17 15 14 14 13 13 15 19 18 14 16 21 21 21 22 22 22 22 20 19 18 17 15 13 12 12
24 25 28 29 28 29 29 26 24 24 23 21 19 19 19 20 20 17 15 14 14 15 15 19 22 22 22 26 28 27 24 22 22 23 25 29 30 29 28 28 27 28 28 28 28 26 27 29 28 27 27 26 25 24 24 24 23 20 20 19 18 17 16 15 15 14 13 13 16 19 19 15 15 20 22 22 23 23 22 21 20 18 18 17 15 13 12 12
22 23 26 27 26 28 28 26 25 24 22 21 20 19 19 19 19 17 15 14 14 14 14 17 22 22 23 25 26 26 24 22 21 23 24 27 28 28 27 27 26 26 27 28 27 26 26 27 27 27 26 25 23 23 24 25 23 20 19 20 18 16 15 14 14 13 12 14 18 20 20 17 15 20 24 22 21 23 22 20 19 18 18 17 15 13 12 12
20 22 25 26 25 26 26 25 24 22 21 21 20 19 19 19 17 17 15 14 14 13 13 16 20 21 23 24 25 24 23 22 22 23 25 25 27 28 27 28 27 26 26 28 28 27 26 26 27 27 27 25 23 22 24 25 24 21 20 20 18 16 15 14 14 14 14 15 19 20 20 18 15 19 24 21 20 23 23 21 20 19 18 16 14 13 12 12
19 21 24 25 24 25 26 25 22 20 21 20 19 19 20 18 17 18 15 12 12 12 12 15 18 20 22 23 24 24 22 22 23 24 25 25 27 29 28 29 29 27 27 28 28 27 27 27 26 26 27 27 24 23 23 24 24 23 23 22 19 16 16 15 15 15 15 16 17 18 19 17 16 19 21 20 21 23 22 20 20 19 18 16 15 13 11 12
17 20 23 24 23 24 27 25 21 20 20 20 20 20 19 18 17 18 15 11 12 11 11 14 17 19 21 22 24 24 22 22 23 24 25 26 26 28 29 28 29 28 26 27 27 27 27 26 27 27 27 28 27 25 25 25 25 25 25 24 21 18 16 17 16 15 15 16 16 17 19 17 15 16 19 20 21 21 19 19 19 19 18 16 15 13 12 11
17 20 22 23 22 23 27 25 21 20 19 19 20 20 20 19 16 16 14 12 12 11 11 14 16 18 20 21 23 25 23 22 22 23 25 27 26 27 29 29 29 28 25 24 26 27 27 26 29 29 27 28 29 27 25 25 25 25 25 24 22 20 18 17 16 15 15 15 14 14 17 17 14 15 18 19 18 19 18 19 19 18 17 16 15 13 12 11
17 19 20 20 21 23 25 23 22 21 19 19 20 20 21 20 15 14 14 12 11 11 11 13 17 19 18 19 21 24 24 22 22 22 24 27 27 27 29 30 30 28 25 25 25 26 27 27 27 28 27 27 28 26 24 23 24 24 24 24 24 22 19 16 16 16 16 14 13 13 15 15 14 14 15 16 15 17 19 19 19 19 18 17 15 14 13 11
17 18 19 18 19 22 23 22 22 21 20 20 20 20 21 20 16 13 12 11 10 10 10 12 16 18 17 18 20 24 25 23 21 22 22 25 26 27 28 29 30 29 27 26 24 25 26 25 25 26 26 27 27 26 25 25 25 24 24 27 25 22 19 16 15 15 14 14 14 15 15 15 15 14 14 15 16 18 19 19 19 19 18 17 15 15 13 12
16 17 16 15 17 20 21 21 21 21 20 19 20 21 21 20 16 12 11 10 10 10 11 12 14 16 17 18 18 22 25 24 22 22 22 23 25 26 28 28 29 30 28 25 23 23 23 23 24 26 26 26 26 26 25 25 24 24 26 27 24 21 19 18 16 14 13 15 15 16 17 18 17 15 16 17 18 19 20 19 19 18 18 16 15 15 14 13
14 15 13 13 16 19 19 20 20 20 20 20 21 21 21 20 15 11 10 10 10 10 11 12 13 14 16 18 18 21 24 24 24 22 22 22 23 25 27 27 28 30 29 25 22 22 22 20 22 26 26 24 24 25 25 24 23 23 25 25 23 22 21 20 18 16 16 16 16 16 18 19 18 18 19 19 19 20 20 21 21 19 18 16 16 16 15 14
13 12 10 11 16 18 19 19 19 20 20 22 22 21 21 20 15 11 10 10 10 11 11 12 12 12 15 17 17 20 23 24 24 22 21 22 21 23 26 27 28 30 30 27 23 21 21 19 19 24 25 23 23 26 27 26 23 22 22 23 23 22 22 22 21 18 17 17 16 16 18 19 18 19 20 19 19 20 20 20 21 20 18 18 17 17 16 15
10 9 8 10 15 18 18 18 19 20 21 21 21 21 20 17 14 12 10 10 10 12 12 12 11 11 13 14 15 18 21 24 24 22 21 21 21 22 25 26 27 30 30 27 24 21 21 20 19 21 23 24 26 28 29 27 25 23 22 23 24 22 20 21 21 19 18 16 16 17 18 19 19 19 19 19 18 18 18 18 18 19 18 18 18 17 16 15
8 8 8 11 14 17 18 18 19 19 20 19 19 19 18 15 13 11 9 10 11 12 12 12 11 12 12 14 14 15 18 22 24 22 20 20 21 20 23 25 26 29 30 28 26 23 21 21 20 20 22 25 26 27 28 27 25 24 23 23 24 22 20 19 20 20 19 17 17 18 18 19 19 19 19 19 18 17 17 17 17 19 19 18 18 17 16 15
7 6 8 11 14 17 18 17 17 18 19 18 18 17 16 15 13 10 9 11 12 12 13 12 12 12 13 14 14 13 14 19 23 23 20 20 21 20 21 25 26 29 30 28 27 25 21 20 21 20 22 24 23 23 26 26 24 24 23 23 23 22 21 21 20 20 20 18 17 16 16 18 19 20 20 19 18 18 18 18 18 19 19 19 18 18 17 16
6 6 9 13 14 17 18 16 17 18 18 17 17 16 15 15 13 10 9 12 12 12 12 12 12 12 12 14 14 12 11 15 21 23 20 19 20 20 21 23 26 28 29 28 27 25 22 20 21 20 19 20 20 20 23 24 23 24 24 24 24 23 24 23 21 19 19 20 19 15 15 18 19 20 20 19 18 18 19 19 19 19 19 19 19 18 18 17
7 8 12 14 15 17 17 17 18 18 17 17 16 14 14 14 13 10 11 13 12 11 11 11 12 12 12 14 14 11 10 12 17 20 19 18 19 21 20 22 26 27 28 29 28 25 23 21 21 19 17 18 18 19 22 23 23 24 25 24 25 25 25 23 21 19 18 19 21 19 17 18 19 20 20 20 19 20 20 20 20 20 20 20 20 19 19 18
8 12 13 14 16 17 17 17 18 18 17 16 14 13 13 13 12 11 12 12 12 11 11 11 11 11 12 14 13 11 11 12 15 17 17 17 18 19 19 22 25 26 27 30 29 26 23 21 21 20 18 18 19 20 23 24 24 23 23 24 25 25 25 23 20 20 20 18 18 19 18 18 19 20 21 21 21 21 21 21 21 20 20 20 20 20 20 19
11 13 14 14 16 17 16 16 16 16 15 14 13 12 12 12 11 11 11 12 12 12 12 12 10 10 12 13 12 11 11 12 13 15 15 15 16 16 17 21 23 24 28 31 29 25 21 20 21 21 20 19 18 18 20 22 22 22 23 24 24 23 23 22 19 21 21 18 16 18 19 19 20 21 21 21 21 21 21 22 21 21 21 20 20 19 19 19
12 13 14 15 16 17 16 15 15 15 14 13 12 11 11 11 10 9 10 11 10 11 12 11 10 12 12 12 13 12 11 12 13 13 13 15 16 14 15 19 20 21 27 31 29 24 20 20 21 21 21 19 16 15 16 18 19 20 21 22 22 22 22 22 21 21 21 20 18 19 19 19 20 21 21 21 21 20 20 21 21 20 20 19 18 18 18 18
13 14 15 16 17 18 18 16 15 14 13 12 11 11 10 9 9 9 9 9 8 9 12 11 11 13 12 12 13 11 11 12 13 12 12 14 15 13 13 17 18 19 24 27 27 24 21 20 20 20 20 18 16 15 15 17 17 17 19 20 22 22 23 23 23 22 21 21 22 22 22 21 20 20 20 21 21 20 19 19 19 19 19 18 17 17 18 18
13 14 15 16 17 18 17 15 15 14 12 11 10 10 9 8 8 8 8 8 8 9 11 11 12 12 11 12 13 12 12 12 12 12 12 14 15 13 13 15 16 18 21 24 25 24 21 20 20 20 18 16 15 15 15 16 16 16 16 18 20 22 22 23 23 21 20 20 21 23 22 19 19 19 19 20 19 19 19 19 19 18 18 18 17 17 17 17
13 14 16 17 17 17 15 13 13 13 12 11 10 9 8 7 8 7 7 8 9 9 10 11 11 12 12 12 13 13 12 12 12 12 12 14 15 14 14 15 16 17 19 22 24 24 22 21 20 20 17 15 15 16 15 16 17 16 15 16 17 19 19 20 21 20 18 18 19 20 19 17 17 18 18 19 19 19 19 19 19 18 18 18 17 16 16 17
13 14 16 17 16 14 13 12 12 12 11 10 9 8 7 7 7 7 7 8 9 9 9 9 10 12 13 13 13 13 12 12 12 12 12 14 15 15 15 15 16 17 18 19 21 22 22 21 20 20 17 15 16 17 16 15 15 15 15 15 16 18 18 19 20 21 20 19 19 20 20 18 18 18 19 19 20 20 20 19 18 18 18 18 17 16 16 17
13 14 15 16 14 13 12 11 10 10 10 9 7 6 7 6 5 6 8 7 7 8 8 9 10 12 13 13 13 13 12 11 12 13 13 13 14 15 15 14 15 17 18 18 19 20 21 21 20 20 18 16 17 17 16 15 14 15 17 18 18 19 19 18 19 19 19 20 20 21 21 20 18 18 19 20 21 21 20 19 18 17 17 17 16 16 17 17
Wind_Direction
279 278 277 276 275 273 272 271 271 270 268 267 267 266 265 264 263 261 259 258 257 256 255 255 255 255 255 256 257 257 256 253 251 248 242 240 239 237 235 233 233 233 231 231 231 230 228 226 225 222 221 224 224 226 225 222 221 221 222 224 227 224 216 206 208 217 224 238 233 230 221 204 209 211 210 214 206 200 205 212 204 205 202 197 194 186 187 190
279 277 276 276 275 274 273 272 271 270 269 268 267 266 265 264 262 261 260 258 257 256 255 255 255 255 255 255 256 257 256 252 250 247 241 239 238 235 234 232 232 230 226 227 227 225 223 223 222 219 219 222 223 223 222 221 218 218 220 223 223 215 210 207 213 224 230 235 235 233 226 215 214 214 216 222 219 203 202 208 187 183 191 189 187 186 190 191
279 278 276 275 274 273 272 272 270 270 269 268 267 266 265 263 262 261 260 258 257 256 255 254 254 254 254 255 256 257 255 251 248 244 241 239 235 233 231 229 229 225 222 225 225 222 221 221 220 218 219 222 222 221 222 221 220 219 219 221 218 210 211 216 219 229 236 237 235 232 227 221 220 219 219 220 222 215 208 206 192 188 190 189 192 191 192 194
279 278 277 275 274 273 272 271 270 269 268 268 267 266 265 263 262 261 260 259 257 256 254 253 253 253 254 254 255 254 252 249 245 241 241 238 232 230 228 226 225 221 221 224 224 222 221 221 221 220 220 222 221 221 221 221 221 220 217 216 212 211 217 218 222 233 241 240 232 225 222 227 229 220 211 208 219 228 218 205 194 190 190 192 196 197 197 197
278 277 276 275 274 273 271 270 269 269 268 267 267 266 265 263 262 261 260 258 257 255 254 253 252 252 253 254 253 250 246 245 242 237 237 236 229 226 224 222 221 219 221 224 223 222 222 221 221 221 220 220 220 218 220 220 220 222 219 215 214 216 219 220 225 235 238 236 231 220 216 232 235 217 210 211 221 227 220 206 193 187 189 193 197 201 202 201
277 277 276 275 274 273 271 270 269 268 267 267 266 266 264 263 262 261 259 258 257 255 254 252 251 251 252 253 250 243 239 239 239 235 234 233 226 222 220 218 217 218 221 222 222 222 221 219 219 220 217 218 218 215 217 219 218 222 221 218 219 219 220 224 227 232 233 229 226 220 220 231 232 220 219 222 222 217 210 201 191 188 189 192 197 201 205 207
277 276 276 275 273 272 271 270 269 267 267 266 265 265 264 263 262 260 259 257 256 254 253 252 251 251 251 251 244 238 237 238 237 232 231 229 222 217 216 216 216 217 219 220 221 221 220 217 218 218 215 217 217 214 216 218 218 219 219 218 221 221 221 227 229 232 236 231 227 222 223 233 227 222 222 211 204 203 198 194 189 191 193 194 198 202 206 209
276 275 275 274 273 272 271 270 269 267 266 265 265 264 263 263 261 260 258 256 255 253 253 252 250 250 250 247 240 238 237 236 233 229 229 227 221 216 215 216 217 217 218 219 219 219 219 218 218 217 214 215 215 214 215 219 221 218 217 219 221 221 222 227 230 232 232 229 230 224 220 228 217 209 212 198 191 192 190 191 191 194 197 199 200 202 207 209
274 274 273 273 272 271 270 270 269 267 265 264 264 263 263 262 261 259 257 256 254 252 252 251 249 248 246 241 237 237 236 233 231 228 227 227 224 219 217 218 218 218 219 220 219 219 220 218 218 217 215 217 217 216 215 216 219 215 214 217 220 221 222 225 227 228 227 224 228 223 214 214 205 198 209 201 188 187 188 190 192 194 199 203 205 205 207 207
273 272 272 272 271 271 270 269 269 267 265 264 263 262 262 261 260 258 256 254 253 252 251 249 248 245 242 237 233 233 233 231 229 227 227 227 225 221 219 219 219 218 218 219 219 218 219 217 215 215 217 220 219 218 216 214 217 216 216 220 222 222 223 222 223 228 229 226 225 220 214 211 210 211 214 207 194 190 188 189 192 194 201 205 207 208 209 208
271 271 271 270 270 270 270 269 268 267 265 263 262 261 261 260 258 257 255 253 251 251 249 247 246 243 238 235 231 229 229 228 226 225 226 227 225 221 219 219 219 218 218 218 218 217 218 217 215 216 217 218 219 221 219 217 219 222 223 225 225 224 224 222 223 228 228 226 220 217 219 218 218 218 211 205 198 193 190 192 195 196 201 204 205 208 209 209
270 269 269 269 269 269 269 269 268 266 265 263 262 261 260 259 257 256 254 252 250 249 247 246 244 240 236 234 230 227 227 227 226 226 226 225 224 223 221 219 218 218 217 217 218 217 217 217 216 217 218 217 219 219 219 221 222 224 222 223 225 223 223 223 222 223 223 222 214 210 224 225 222 216 205 201 198 195 194 195 197 197 199 201 203 206 207 207
269 268 267 267 268 268 268 269 268 266 264 262 261 260 258 257 256 254 252 250 249 247 246 244 242 238 235 233 229 226 227 228 230 231 227 224 223 223 222 219 218 218 216 217 218 217 216 217 217 217 219 218 218 219 222 225 224 224 221 217 221 222 222 222 218 215 217 219 209 205 222 227 225 216 202 198 196 193 195 197 198 198 198 199 201 204 205 206
269 267 265 265 266 266 267 267 267 265 263 262 260 258 257 255 254 253 251 249 247 246 244 242 239 236 234 233 231 230 231 233 235 233 226 223 224 224 223 219 217 217 215 215 216 216 216 217 217 218 220 218 218 222 224 223 219 220 222 218 218 219 222 223 217 210 213 218 207 206 223 225 224 216 204 199 195 191 194 198 199 199 199 200 201 204 207 210
269 266 264 263 263 264 265 266 266 264 263 261 259 257 255 254 252 250 249 247 245 244 242 241 237 233 235 235 232 232 232 231 232 229 223 221 223 223 222 217 216 216 215 215 215 214 214 216 217 217 218 216 217 220 220 219 216 215 219 221 218 217 220 224 221 211 211 219 208 208 224 222 219 213 204 200 197 193 194 199 200 199 200 202 203 206 208 212
269 266 263 261 261 262 264 264 264 263 261 260 258 256 254 252 250 248 247 246 244 242 239 237 233 231 234 233 232 232 229 227 227 225 221 221 220 219 219 218 216 215 214 214 214 214 213 215 216 215 215 214 214 216 218 221 219 215 215 217 217 215 218 221 223 217 212 218 215 212 218 215 214 209 201 199 198 194 195 200 200 199 201 203 205 207 209 212
268 266 264 261 260 261 262 262 262 261 260 259 257 255 253 250 247 246 245 242 241 238 233 233 231 231 234 233 232 232 228 226 226 223 221 219 217 216 217 218 215 213 213 213 213 213 213 213 214 214 212 211 211 211 217 221 219 218 215 214 215 214 216 217 223 222 214 216 219 215 214 209 208 205 200 200 201 197 197 200 200 199 201 201 203 205 207 210
267 265 263 261 259 258 260 260 260 259 258 258 256 255 252 248 244 243 240 237 236 233 232 232 230 232 234 232 230 229 227 226 224 222 220 217 214 215 217 217 214 210 211 211 212 211 211 212 210 211 212 209 209 209 213 216 214 214 212 212 217 217 217 218 220 219 211 213 216 214 214 209 205 204 202 203 204 200 198 199 200 199 199 199 202 205 206 208
266 263 262 260 257 255 257 258 257 257 257 256 255 254 251 245 241 239 235 232 230 229 232 230 226 229 232 229 225 225 227 224 222 221 218 214 213 215 216 217 214 209 208 209 210 209 207 209 209 209 212 209 209 209 210 212 209 210 210 210 214 217 220 218 217 216 208 211 216 213 213 210 205 207 205 205 205 202 199 199 200 201 201 202 205 207 207 209
265 261 260 259 256 253 253 254 255 255 254 254 253 252 246 239 237 236 232 230 229 230 234 230 225 228 232 228 222 223 227 223 220 219 216 213 211 213 216 216 214 209 208 208 209 208 204 208 210 209 210 208 207 206 207 210 209 210 211 212 215 217 220 217 214 216 209 212 219 213 212 210 206 209 208 206 208 205 201 200 201 202 204 206 207 206 207 211
263 259 257 257 255 251 250 252 252 252 252 251 250 246 240 234 233 234 233 232 232 232 235 233 228 230 232 230 227 228 230 224 221 218 215 213 210 212 215 213 211 210 209 206 206 207 205 209 211 208 208 207 206 205 205 209 211 211 211 214 218 215 216 215 211 215 212 214 220 212 211 212 207 210 210 207 209 208 203 201 201 202 204 207 205 203 208 214
262 257 255 255 252 248 246 249 250 250 250 248 246 242 238 234 231 233 234 234 235 233 234 235 233 233 232 231 230 229 226 223 223 220 214 211 211 212 212 211 210 210 208 205 205 207 208 212 210 206 206 205 207 206 205 209 210 211 210 213 217 212 213 216 213 214 212 214 218 209 208 210 206 210 212 208 209 210 206 204 202 201 203 206 204 204 209 213
260 255 253 251 249 245 243 245 246 247 247 245 243 239 237 234 230 233 235 234 236 233 232 233 232 233 231 229 226 223 222 220 221 220 213 211 211 211 211 210 209 208 207 206 206 206 210 212 207 205 204 203 207 207 205 208 210 209 207 210 214 210 210 215 215 216 212 211 211 204 207 210 205 209 214 209 207 208 208 207 206 205 204 203 202 204 207 209
257 253 250 247 246 243 240 242 243 243 244 242 240 237 235 231 228 233 234 233 234 232 230 229 229 229 226 223 220 217 218 217 217 217 213 210 209 209 211 210 207 208 209 208 207 208 212 211 204 203 204 203 207 209 206 207 210 209 205 208 211 208 208 212 215 220 217 214 209 201 208 215 209 207 212 212 207 207 208 207 208 209 205 201 201 202 205 209
256 250 246 243 242 239 235 238 239 239 240 237 236 235 230 227 226 229 232 233 234 231 228 225 225 226 221 218 218 215 215 217 215 215 212 209 206 207 210 209 207 209 209 208 208 210 213 210 202 203 205 204 207 210 207 205 208 211 208 208 208 206 209 213 218 224 222 220 213 202 206 218 216 209 209 211 210 209 208 206 206 206 204 202 201 203 207 212
255 248 242 238 237 233 229 233 234 234 233 231 231 229 225 223 223 224 226 234 236 229 223 220 219 220 215 212 213 212 215 219 214 213 214 209 205 205 208 208 208 210 208 207 210 211 210 207 203 203 206 206 208 210 208 203 206 212 209 203 204 206 210 215 219 221 219 218 212 204 206 215 214 211 209 208 207 207 207 208 207 205 204 204 202 203 208 215
254 245 238 234 232 226 223 227 229 227 225 224 225 223 223 222 220 220 222 232 234 224 218 216 213 213 211 208 206 205 213 215 210 212 213 207 203 204 207 208 207 208 206 205 211 211 206 205 205 204 205 207 209 210 207 201 204 211 204 195 199 203 206 212 217 217 217 215 211 206 205 207 208 209 209 204 200 202 204 206 207 206 204 202 201 202 206 213
252 242 234 230 227 222 220 223 225 222 219 219 221 221 221 218 213 214 217 224 223 213 213 213 209 209 207 203 201 205 212 209 206 211 209 204 202 203 207 208 206 206 205 206 210 209 205 205 206 204 206 209 209 210 206 201 206 210 200 194 198 200 203 211 214 218 217 212 211 208 203 203 205 205 203 200 197 199 203 203 204 204 202 200 200 203 208 210
248 238 229 224 222 219 218 220 221 219 217 219 221 218 216 210 206 209 212 215 213 208 210 207 204 206 202 198 200 205 210 207 206 207 202 201 203 204 207 207 204 206 207 208 210 209 207 207 206 205 208 210 209 209 206 202 206 205 198 199 201 198 205 212 212 214 213 209 211 209 202 200 205 202 199 201 202 202 203 203 202 202 200 200 201 204 209 207
243 233 221 216 215 213 212 215 216 216 217 217 215 213 211 203 202 206 207 209 209 208 208 202 201 202 197 197 200 204 207 207 206 202 199 201 202 203 206 205 204 206 208 209 210 210 210 208 207 207 208 208 208 208 206 203 204 202 200 204 204 203 209 215 216 210 207 214 214 210 204 200 206 207 202 206 210 204 201 201 202 202 201 202 203 206 210 210
236 224 213 208 207 205 206 208 210 211 212 211 209 207 203 197 201 203 201 205 204 201 202 198 198 198 195 196 198 201 204 206 206 201 200 201 200 201 202 202 203 204 207 209 209 210 211 208 208 207 207 206 205 207 207 204 204 203 202 202 203 208 212 215 219 211 206 216 215 210 205 201 209 212 208 213 215 206 202 201 201 203 204 204 206 208 212 211
225 214 205 202 201 201 202 201 202 205 206 206 204 200 194 193 201 202 200 201 192 192 199 194 193 195 195 197 197 198 199 202 204 203 201 200 200 203 202 201 201 201 205 207 205 208 210 209 207 207 206 204 203 205 206 205 204 203 203 200 198 202 205 207 213 211 210 215 215 207 203 207 215 214 214 219 215 208 209 208 204 204 203 204 204 205 206 207
210 201 196 195 197 198 197 196 199 200 201 201 198 193 190 192 196 195 195 193 183 189 197 192 190 191 192 196 197 197 197 198 201 202 201 200 200 203 204 203 201 200 204 204 202 204 208 210 208 206 206 204 202 203 204 204 204 203 203 201 197 197 200 206 210 212 212 214 215 207 203 212 219 215 218 221 212 207 211 212 207 205 202 201 202 200 200 204
191 187 187 189 193 193 193 195 197 195 195 195 191 187 188 190 189 188 191 194 191 193 195 193 191 188 191 196 197 195 196 198 198 199 199 199 200 203 204 204 201 200 202 202 202 203 205 209 207 205 206 204 203 204 203 202 203 204 202 200 201 201 201 206 208 210 211 211 213 209 206 213 216 217 220 218 209 204 207 209 206 203 202 200 200 199 200 205
174 177 180 183 187 188 191 194 193 191 191 189 186 186 186 185 183 180 184 191 193 194 200 203 193 187 190 196 195 195 196 197 198 200 201 200 201 203 203 203 201 200 200 200 203 204 206 211 208 204 207 204 203 204 202 200 204 205 201 202 207 205 202 206 209 207 206 207 210 208 208 213 215 218 219 214 209 205 205 206 204 202 202 200 201 202 204 209
160 166 171 175 181 184 188 191 189 188 188 185 183 185 184 182 181 178 179 186 191 193 201 200 189 186 190 192 193 196 196 197 197 199 202 200 201 203 202 203 201 200 200 200 203 203 204 212 210 203 206 206 203 203 202 202 203 202 203 207 209 204 201 205 211 210 203 203 212 211 208 211 213 219 219 212 210 208 206 207 205 204 203 203 206 208 209 213
151 158 163 171 179 182 186 188 186 186 187 184 181 182 183 183 182 182 183 187 194 195 192 189 186 188 189 188 192 193 194 197 197 198 201 200 201 202 202 203 201 200 201 200 203 203 202 209 210 203 205 208 204 200 202 205 203 202 207 209 205 203 206 207 210 216 209 207 218 217 209 209 214 220 216 208 208 210 210 210 209 209 208 208 208 209 209 212
144 153 161 172 178 180 183 183 182 183 181 180 181 181 182 183 181 183 190 194 196 193 187 185 187 189 188 188 192 191 191 196 197 197 200 201 203 203 201 203 202 201 200 198 202 205 202 207 211 204 203 206 203 200 203 208 207 207 209 206 201 203 209 209 209 213 211 211 220 219 213 216 221 220 212 205 207 211 212 213 212 212 212 210 209 208 209 211
138 149 158 168 174 176 177 176 177 178 176 177 181 181 180 183 183 186 196 199 193 188 184 181 180 184 186 187 191 191 192 196 197 197 200 200 203 204 202 202 202 201 199 198 201 203 201 204 208 206 203 202 202 203 205 207 207 206 205 204 204 206 208 208 210 212 211 214 220 219 220 225 225 220 213 209 209 210 211 213 213 213 213 212 211 212 213 215
132 142 148 156 166 170 170 171 172 173 174 176 178 178 179 183 185 188 197 197 188 184 183 180 178 182 185 185 188 190 192 195 196 198 200 199 201 205 203 201 201 199 198 198 200 201 201 203 205 206 204 202 206 208 206 204 204 203 203 204 205 207 208 209 213 215 213 215 219 219 226 229 225 221 215 209 208 209 210 212 212 213 212 212 214 216 217 218
126 136 146 152 160 164 163 165 167 168 171 173 174 177 181 184 185 188 196 197 190 187 188 187 185 186 187 185 184 187 193 197 197 198 200 198 199 203 203 201 200 197 197 199 201 200 200 201 203 205 204 204 211 212 204 202 204 204 205 206 205 205 205 207 215 220 217 216 217 218 226 229 225 222 216 211 210 210 208 209 211 211 211 212 216 218 219 222
123 133 150 152 154 159 158 160 165 166 167 168 169 175 181 183 182 182 187 190 188 185 186 186 186 188 189 184 181 184 192 197 197 197 198 199 200 202 202 201 199 197 197 199 201 199 197 198 202 206 206 206 212 213 204 202 205 206 207 209 207 206 207 208 215 221 219 219 218 217 224 227 226 224 218 215 214 211 208 208 210 212 212 214 217 219 221 224
114 128 146 149 151 155 154 154 161 163 163 164 168 174 180 182 180 179 181 183 181 177 178 180 181 185 184 179 178 185 193 196 197 196 196 198 201 202 200 199 198 197 197 198 199 198 197 199 202 206 209 209 212 212 207 205 206 208 210 211 209 210 212 213 217 219 219 219 217 219 227 228 226 223 218 214 213 211 210 209 210 213 215 215 216 218 220 222
107 123 138 144 147 150 150 149 152 155 157 161 166 170 176 180 180 180 180 180 178 173 173 179 180 180 179 175 178 189 192 189 191 194 195 197 200 201 199 197 197 197 197 197 196 196 199 202 200 199 202 206 208 209 209 208 208 211 213 212 211 211 211 215 220 220 222 223 217 217 226 227 224 220 215 212 214 216 215 214 213 216 217 216 216 218 221 223
114 125 131 139 143 145 147 145 145 147 150 156 162 164 168 172 177 185 187 184 185 182 179 184 182 176 177 176 179 188 186 182 184 188 193 196 196 197 196 195 196 196 195 195 193 194 199 202 200 197 196 199 203 208 209 208 209 213 213 210 210 209 208 213 218 217 220 224 219 217 220 221 219 217 214 213 215 218 219 218 218 219 220 220 220 222 224 226
122 128 131 136 139 143 147 147 144 143 145 150 154 156 158 162 168 182 188 182 183 184 182 187 186 176 177 177 177 183 182 181 183 181 184 190 191 193 195 192 192 193 192 191 190 192 198 201 200 199 198 199 204 210 210 206 206 211 211 208 207 207 207 210 214 216 216 216 220 221 214 210 213 215 214 215 215 216 218 218 218 220 221 222 223 224 226 227
124 129 132 135 136 142 147 145 141 142 146 147 147 150 157 160 159 166 173 175 182 184 180 183 177 170 175 177 177 183 185 181 178 174 180 186 184 187 190 185 185 190 190 189 189 189 194 200 200 198 198 200 201 203 203 201 203 208 209 208 209 208 207 209 215 219 215 214 221 222 210 207 213 215 214 215 214 214 217 217 217 218 220 221 222 222 222 222
124 126 131 134 135 140 144 144 143 146 152 152 148 150 157 160 160 160 163 172 183 180 175 176 171 168 175 178 175 180 181 175 173 174 178 178 175 178 183 180 183 188 186 188 191 191 193 198 199 195 196 199 198 195 194 195 199 203 204 207 211 211 209 212 218 220 217 219 222 218 213 213 215 215 214 213 212 212 213 213 214 216 218 219 219 218 218 218
124 127 133 134 136 140 142 145 146 147 153 157 153 157 162 165 168 167 166 171 174 169 167 171 173 171 174 176 173 173 172 170 171 173 172 172 173 174 174 176 184 188 184 187 193 195 195 199 199 195 195 199 200 197 194 194 197 201 204 209 213 212 210 213 217 218 220 223 219 212 214 219 218 216 215 212 210 210 209 210 212 214 215 216 216 216 216 216
123 131 136 136 139 144 145 147 147 145 150 156 159 166 171 172 173 171 169 171 172 171 169 171 176 176 174 172 170 170 170 170 171 171 169 169 173 174 172 175 182 185 183 187 193 196 196 199 199 195 194 202 206 202 197 195 196 199 204 210 212 211 212 215 217 218 219 221 212 205 209 218 219 215 211 209 208 208 210 212 212 213 213 213 214 215 215 213
120 132 140 141 143 145 144 147 148 144 143 149 158 167 170 172 177 176 171 168 168 174 180 180 182 182 177 172 171 174 176 174 175 177 174 171 174 177 178 178 179 179 181 186 192 196 197 198 199 196 194 203 210 207 201 200 201 204 210 214 214 213 214 217 221 221 217 212 206 205 210 216 215 209 208 211 210 210 213 214 213 215 215 212 212 213 213 210
119 131 140 144 144 142 142 147 147 143 145 147 152 164 172 174 180 178 177 177 174 176 185 188 186 183 180 177 178 183 187 183 183 186 179 173 176 177 175 174 174 175 180 184 188 194 196 196 198 198 197 205 213 210 204 206 211 215 217 217 216 216 215 217 223 225 219 211 211 217 220 219 213 207 208 214 215 215 216 215 213 215 214 211 209 207 206 205